Terminal Aerodrome Forecast
Issued by NWS Albany, NY

Home | Current Version | Previous Version | Text Only | Print | Product List | Glossary On
Versions: 1 2 3 4 5 6 7 8 9 10 11 12 13 14 15 16 17 18 19 20 21 22 23 24 25 26 27 28 29 30 31
000
FTUS41 KALY 061720
TAFPOU
TAF
KPOU 061720Z 0618/0718 36005KT 4SM -RA BR OVC015
     FM070300 07004KT P6SM VCSH SCT007 OVC015
     FM070600 06003KT P6SM VCSH BKN007 OVC015
     FM071600 03003KT P6SM VCSH SCT007 BKN015 OVC025=

USA.gov is the U.S. government's official web portal to all federal, state and local government web resources and services.